Terug naar catalogus

SL-12 R/B(2)

ActiefGEO
NORAD 22213·ROCKET BODY·🇷🇺 Russia

Gelanceerd Oct 30, 1992 vanaf Baikonur Cosmodrome

Loading…

TLE

VersSource: Space-Track

Epoch: Aug 30, 2026, 00:47 UTC

1 22213U 92074D   26242.03285213 -.00000002  00000-0  00000+0 0  9994
2 22213  13.2158 342.2501 0020260 154.7776 196.9045  1.01138151126516

Volg SL-12 R/B(2) in realtime met AllMySat

Download on the App Store